SCP
0 0 0 0 0 0 0 0 0 0 0 0 0 0 0 0 0 0 0 0 0 0 0 0 0 0 0 0 0 0 0 0 0 0 0 0 0 0 0 0 0 0 0
0 0 0 0 0 0 0 0 0 0 0 0 0 0 0 0 0 0 0 0 0 0 0 0 0 0 0 0 0 0 0 0 0 0 0 0 0 0 0 0 0 0 0
0 0 0 0 0 0 0 0 0 0 0 0 0 0 0 0 0 0 0 0 0 0 0 0 0 0 0 0 0 0 0 0 0 0 0 0 0 0 0 0 0 0 0
0 0 0 0 0 0 0 0 0 0 0 0 0 0 0 0 0 0 0 0 0 0 0 0 0 0 0 0 0 0 0 0 0 0 0 0 0 0 0 0 0 0 0
0 0 0 0 0 0 0 0 0 0 0 0 0 0 0 0 0 0 0 0 0 0 0 0 0 0 0 0 0 0 0 0 0 0 0 0 0 0 0 0 0 0 0
0 0 0 0 0 0 0 0 0 0 0 0 0 0 0 0 0 0 0 0 0 0 0 0 0 0 0 0 0 0 0 0 0 0 0 0 0 0 0 0 0 0 0
0 0 0 0 0 0 0 0 0 0 0 0 0 0 0 0 0 0 0 0 0 0 0 0 0 0 0 0 0 0 0 0 0 0 0 0 0 0 0 0 0 0 0
0 0 0 0 0 0 0 0 0 0 0 0 0 0 0 0 0 0 0 0 0 0 0 0 0 0 0 0 0 0 0 0 0 0 0 0 0 0 0 0 0 0 0
0 0 0 0 0 0 0 0 0 0 0 0 0 0 0 0 0 0 0 0 0 0 0 0 0 0 0 0 0 0 0 0 0 0 0 0 0 0 0 0 0 0 0
0 0 0 0 0 0 0 0 0 0 0 0 0 0 0 0 0 0 0 0 0 0 0 0 0 0 0 0 0 0 0 0 0 0 0 0 0 0 0 0 0 0 0
0 0 0 0 0 0 0 0 0 0 0 0 0 0 0 0 0 0 0 0 0 0 0 0 0 0 0 0 0 0 0 0 0 0 0 0 0 0 0 0 0 0 0
0 0 0 0 0 0 0 0 0 0 0 0 0 0 0 0 0 0 0 0 0 0 0 0 0 0 0 0 0 0 0 0 0 0 0 0 0 0 0 0 0 0 0
0 0 0 0 0 0 0 0 0 0 0 0 0 0 0 0 0 0 0 0 0 0 0 0 0 0 0 0 0 0 0 0 0 0 0 0 0 0 0 0 0 0 0
0 0 0 0 0 0 0 0 0 0 0 0 0 0 0 0 0 0 0 0 0 0 0 0 0 0 0 0 0 0 0 0 0 0 0 0 0 0 0 0 0 0 0
0 0 0 0 0 0 0 0 0 0 0 0 0 0 0 0 0 0 0 0 0 0 0 0 0 0 0 0 0 0 0 0 0 0 0 0 0 0 0 0 0 0 0
0 0 0 0 0 0 0 0 0 0 0 0 0 0 0 0 0 0 0 0 0 0 0 0 0 0 0 0 0 0 0 0 0 0 0 0 0 0 0 0 0 0 0
0 0 0 0 0 0 0 0 0 0 0 0 0 0 0 0 0 0 0 0 0 0 0 0 0 0 0 0 0 0 0 0 0 0 0 0 0 0 0 0 0 0 0
0 0 0 0 0 0 0 0 0 0 0 0 0 0 0 0 0 0 0 0 0 0 0 0 0 0 0 0 0 0 0 0 0 0 0 0 0 0 0 0 0 0 0
0 0 0 0 0 0 0 0 0 0 0 0 0 0 0 0 0 0 0 0 0 0 0 0 0 0 0 0 0 0 0 0 0 0 0 0 0 0 0 0 0 0 0
0 0 0 0 0 0 0 0 0 0 0 0 0 0 0 0 0 0 0 0 0 0 0 0 0 0 0 0 0 0 0 0 0 0 0 0 0 0 0 0 0 0 0
0 0 0 0 0 0 0 0 0 0 0 0 0 0 0 0 0 0 0 0 0 0 0 0 0 0 0 0 0 0 0 0 0 0 0 0 0 0 0 0 0 0 0
0 0 0 0 0 0 0 0 0 0 0 0 0 0 0 0 0 0 0 0 0 0 0 0 0 0 0 0 0 0 0 0 0 0 0 0 0 0 0 0 0 0 0
0 0 0 0 0 0 0 0 0 0 0 0 0 0 0 0 0 0 0 0 0 0 0 0 0 0 0 0 0 0 0 0 0 0 0 0 0 0 0 0 0 0 0
0 0 0 0 0 0 0 0 0 0 0 0 0 0 0 0 0 0 0 0 0 0 0 0 0 0 0 0 0 0 0 0 0 0 0 0 0 0 0 0 0 0 0
0 0 0 0 0 0 0 0 0 0 0 0 0 0 0 0 0 0 0 0 0 0 0 0 0 0 0 0 0 0 0 0 0 0 0 0 0 0 0 0 0 0 0
0 0 0 0 0 0 0 0 0 0 0 0 0 0 0 0 0 0 0 0 0 0 0 0 0 0 0 0 0 0 0 0 0 0 0 0 0 0 0 0 0 0 0
Wind_Speed
4 4 3 2 2 2 2 2 2 3 3 4 4 5 5 6 6 5 5 13 15 15 15 15 14 13 13 12 11 11 10 9 9 9 8 8 8 7 7 7 7 7 7
5 5 4 4 4 4 4 4 4 4 4 4 5 6 6 6 6 6 6 9 16 17 17 17 17 16 16 15 14 13 12 12 11 11 10 10 9 9 9 9 8 8 8
7 6 5 5 6 5 5 4 4 3 4 5 7 7 6 7 7 8 7 6 7 15 20 20 20 19 19 18 17 16 15 14 13 13 12 12 11 11 11 10 10 10 10
8 7 6 7 6 5 5 5 4 4 5 5 6 6 6 6 8 9 8 8 7 8 14 21 22 22 21 21 20 19 18 17 16 15 15 14 13 13 12 12 12 11 11
9 8 7 7 6 5 5 6 6 5 6 7 7 7 7 8 9 10 10 11 10 10 9 16 24 24 24 23 22 21 20 19 18 17 17 16 15 15 14 14 13 13 13
9 8 7 7 6 5 6 6 7 6 6 6 7 8 7 8 8 9 12 11 11 13 12 12 12 15 25 25 24 24 23 22 21 19 18 18 17 16 16 16 15 15 14
9 9 8 7 7 8 10 9 7 7 6 3 3 6 7 10 13 12 11 11 13 13 11 12 9 8 10 23 26 26 25 24 23 21 20 19 19 18 18 17 17 17 16
9 9 10 8 8 8 8 8 8 5 5 6 5 3 6 6 6 10 9 10 11 8 9 12 10 11 9 7 15 26 26 26 25 24 22 21 20 20 19 19 19 18 18
9 10 11 10 9 9 10 11 11 10 8 6 7 6 5 7 5 4 6 8 8 7 8 7 10 12 12 10 10 20 27 27 27 26 24 23 22 21 21 20 20 20 19
10 11 11 11 10 9 11 11 11 10 9 9 6 9 10 6 4 6 4 4 6 8 9 9 10 12 12 10 14 21 26 28 28 27 26 25 24 23 22 22 21 21 20
7 9 10 10 10 10 11 11 10 11 10 11 9 6 9 9 8 8 12 6 5 7 9 10 9 9 10 11 10 17 27 28 28 28 27 26 25 24 24 23 22 22 21
5 8 8 9 10 9 11 12 11 11 12 13 11 9 8 7 8 11 15 11 10 7 9 10 10 10 10 10 14 24 27 28 28 28 28 27 26 25 24 24 23 22 21
4 6 7 8 9 10 11 10 10 12 13 14 14 12 12 13 9 9 12 13 10 6 6 7 10 10 10 10 12 25 27 28 29 29 28 27 26 25 25 24 23 23 22
6 6 6 7 9 10 10 10 9 12 11 13 16 15 13 12 11 12 11 10 12 10 7 9 5 10 10 10 15 25 16 27 29 29 29 28 27 26 25 24 24 23 22
6 7 7 7 8 9 10 9 9 12 11 12 14 15 14 12 11 12 11 11 12 13 13 8 8 9 11 10 17 13 11 22 28 28 29 28 28 27 26 25 24 24 23
6 7 8 8 8 8 9 9 10 11 12 12 11 13 14 12 11 11 12 12 12 14 15 6 7 6 9 10 17 13 12 24 28 28 28 28 27 27 27 26 25 24 24
8 8 8 8 9 9 9 9 11 11 12 13 12 13 16 13 12 11 11 12 13 13 19 14 6 7 10 10 11 10 10 12 12 25 27 27 27 27 26 26 25 25 25
8 8 8 9 10 10 9 10 12 12 12 14 13 13 15 12 15 13 12 14 14 14 16 20 8 7 11 10 10 9 9 10 9 21 26 26 27 27 26 26 25 25 25
9 9 9 10 11 11 10 11 12 13 13 14 13 13 14 13 15 13 14 14 12 13 14 16 14 7 8 7 8 8 10 8 9 15 22 25 26 27 27 27 26 26 25
9 10 10 11 11 11 11 12 12 13 13 13 13 14 14 14 16 15 14 15 13 13 13 14 13 8 7 6 7 8 9 8 9 9 14 17 20 26 26 27 26 25 25
10 10 11 12 11 10 10 11 12 13 13 14 13 14 15 18 22 18 14 12 13 12 12 13 13 10 9 7 8 7 10 7 8 8 7 9 9 8 10 18 23 24 24
11 10 11 12 13 11 20 26 21 13 12 12 13 13 14 17 21 27 28 26 21 16 15 14 13 13 12 11 9 9 9 8 8 7 9 10 8 9 8 8 17 23 23
11 11 11 12 14 16 26 28 28 18 13 11 12 11 10 11 18 12 18 25 24 26 25 17 16 15 12 12 12 12 11 9 10 6 7 8 7 9 8 11 21 23 24
11 12 12 13 14 17 27 28 28 18 12 11 11 12 12 11 11 13 12 13 13 14 16 13 12 13 12 10 12 13 12 10 6 5 7 6 6 8 8 8 19 23 23
13 12 12 13 15 17 25 27 27 12 10 12 11 11 12 11 18 22 14 12 13 12 17 23 20 17 21 23 17 10 10 9 8 8 8 6 5 6 6 8 12 21 23
13 13 13 12 14 15 22 27 26 10 10 10 9 10 17 17 19 21 13 11 13 11 9 9 11 13 12 16 23 15 11 9 6 6 8 8 5 4 5 6 7 8 11
Wind_Direction
180 182 190 198 209 198 208 229 237 244 250 252 248 244 244 240 240 238 249 264 270 273 274 274 273 271 268 267 266 267 269 271 274 278 281 284 288 293 296 300 304 309 309
182 185 196 203 209 205 205 210 222 233 244 247 253 247 247 246 245 243 240 257 265 268 271 271 271 270 269 267 265 264 264 266 268 270 273 275 277 281 284 288 291 296 298
188 190 199 209 213 204 204 210 223 228 244 245 250 249 249 246 246 246 244 240 251 262 265 267 268 268 267 266 265 263 262 262 264 266 267 268 270 272 275 279 282 287 291
194 194 207 219 210 199 202 210 215 226 238 241 249 250 247 246 246 246 245 242 237 243 255 259 262 263 264 264 263 262 260 259 259 261 262 263 265 268 270 273 275 278 281
201 203 216 221 198 200 209 222 215 211 232 241 246 250 246 246 248 249 245 242 238 238 236 251 255 256 258 260 261 261 259 258 256 257 258 260 261 264 265 268 270 272 274
206 210 224 221 195 204 218 220 229 219 227 241 259 262 252 246 243 243 246 245 240 237 234 236 244 252 253 255 256 258 258 257 255 255 256 257 258 260 262 264 266 267 269
209 212 227 218 204 217 226 220 220 229 236 217 260 281 265 244 243 242 238 239 241 238 233 231 231 230 247 252 253 254 255 255 255 254 254 255 256 257 259 260 261 262 263
216 218 225 227 215 222 228 222 211 217 226 185 192 255 299 299 249 239 235 235 240 236 234 234 229 229 229 233 245 250 253 255 255 254 253 252 254 255 256 258 259 260 260
224 226 226 226 222 218 229 227 217 217 230 214 198 198 229 253 298 265 236 234 233 230 234 234 231 231 230 228 234 247 248 249 251 252 253 252 252 253 254 255 256 257 258
227 227 230 228 227 224 230 231 222 220 222 231 214 221 230 220 244 291 262 246 239 232 230 231 233 232 230 229 232 235 242 244 247 248 250 250 251 251 252 253 254 255 256
235 233 232 231 233 231 233 235 228 220 220 229 222 211 231 241 231 249 270 259 241 229 228 227 228 229 229 227 227 235 240 241 242 244 246 247 249 251 253 254 255 256 257
248 239 235 235 237 237 237 236 234 228 229 230 231 222 212 213 216 224 249 258 258 237 221 223 222 224 225 225 228 235 239 240 241 242 243 244 247 250 253 255 257 258 259
268 255 239 237 239 239 241 239 235 235 234 232 233 234 231 232 224 225 243 258 259 254 231 225 219 219 223 222 228 238 241 240 240 241 242 242 244 247 250 254 256 259 259
268 268 252 243 243 243 243 239 237 239 238 236 238 235 237 236 231 228 234 248 266 265 239 234 217 218 222 222 226 236 240 242 242 241 241 241 242 244 246 250 252 255 258
272 273 266 257 252 247 245 241 241 242 240 238 239 239 239 240 235 234 232 227 240 264 265 222 211 215 218 221 231 232 226 239 244 244 242 241 242 243 245 247 249 251 254
279 281 277 269 263 256 250 245 246 247 244 243 240 240 240 241 239 235 233 232 228 240 262 241 210 199 210 221 231 230 225 237 243 245 244 243 242 243 244 245 247 250 252
287 282 278 275 271 267 261 254 252 250 249 250 245 243 244 239 241 238 233 233 232 231 251 258 212 203 206 220 231 228 221 229 237 243 245 244 244 244 244 245 247 249 251
285 280 279 276 274 271 265 260 262 259 253 253 250 246 249 245 242 240 237 236 235 230 240 257 246 208 216 217 221 225 225 225 223 239 244 247 247 247 246 246 246 249 251
289 286 281 278 276 273 269 265 263 264 259 256 253 249 250 245 247 243 238 238 236 235 235 248 253 221 219 215 221 229 231 227 221 233 242 247 249 249 248 247 247 248 250
288 287 283 280 277 275 271 269 267 266 263 260 255 251 250 245 246 245 243 241 237 237 236 241 250 236 221 204 209 219 230 223 228 228 238 243 248 250 250 249 248 250 252
285 283 284 284 280 277 272 270 266 262 261 261 257 251 249 249 249 249 245 241 235 236 235 238 244 239 225 204 211 210 227 224 225 219 226 236 243 245 247 252 252 252 253
287 285 284 286 285 283 288 292 291 277 266 262 262 257 252 258 261 263 261 254 238 230 229 231 235 234 227 217 212 213 219 221 230 205 216 230 224 233 233 231 245 250 253
288 287 284 284 285 286 293 295 294 290 281 275 269 266 264 258 264 254 262 267 264 253 239 228 232 230 223 213 210 214 213 213 219 190 192 226 218 229 227 234 240 243 247
290 289 290 289 288 290 297 299 299 294 284 278 273 270 268 265 259 260 252 252 253 257 256 247 236 229 222 213 207 210 213 218 222 204 192 222 215 224 226 225 241 245 248
295 291 290 291 291 294 298 300 299 288 281 278 273 267 267 264 268 271 263 254 253 251 258 257 251 241 227 222 210 205 207 210 218 214 199 212 219 221 225 228 237 245 250
295 297 295 292 290 291 295 299 299 288 285 283 276 266 270 271 271 272 263 255 255 250 238 247 255 259 245 230 222 208 201 206 202 208 191 198 205 195 234 229 226 232 246